Simultaneous Nadir Overpasses (SNOs) Predictions

Prediction of SNOs between AQUA and METOP-B Satellite Orbit:

Table of predicted SNOs for the next 14.0 days since TLE Epoch: 9/20/2025
Index Date (AQUA) Time (AQUA) Lat,Lon (AQUA) SZA (AQUA ) Date (METOP-B) Time (METOP-B) Lat,Lon (METOP-B) SZA (METOP-B ) Distance(km) Time Diff (sec)
1 09/22/2025 08:49:36 77.93, 47.83 77.71 09/22/2025 08:49:02 77.93, 47.96 77.72 3.16 34
2 09/22/2025 09:38:54 -77.97,-144.68 102.24 09/22/2025 09:39:44 -77.94,-144.70 102.27 3.58 50
3 09/24/2025 20:48:02 -77.94, 48.25 101.31 09/24/2025 20:47:23 -77.94, 48.38 101.31 2.85 39
4 09/24/2025 21:37:21 77.97,-144.25 78.74 09/24/2025 21:38:02 77.96,-144.17 78.73 2.46 41
5 09/27/2025 08:46:28 77.94, 48.70 79.67 09/27/2025 08:45:42 77.91, 48.65 79.64 3.48 46
6 09/27/2025 09:35:46 -77.97,-143.78 100.29 09/27/2025 09:36:23 -77.96,-143.77 100.30 1.50 37
7 09/29/2025 20:44:52 -77.93, 49.22 99.37 09/29/2025 20:44:02 -77.95, 49.25 99.35 2.37 50
8 09/29/2025 21:34:11 77.98,-143.33 80.70 09/29/2025 21:34:41 77.97,-143.33 80.69 1.07 30
9 10/02/2025 08:43:16 77.93, 49.68 81.61 10/02/2025 08:42:20 77.95, 49.66 81.63 2.23 56



Historial Predications of SNOs between AQUA and METOP-B
